TimeHST,TemperatureF,Dew PointF,Humidity,Sea Level PressureIn,VisibilityMPH,Wind Direction,Wind SpeedMPH,Gust SpeedMPH,PrecipitationIn,Events,Conditions,WindDirDegrees,DateUTC
12:53 AM,68.0,63.0,84,30.03,10.0,Calm,Calm,-,N/A,,Overcast,0,2014-01-10 10:53:00
1:53 AM,64.9,62.1,90,30.01,10.0,Calm,Calm,-,N/A,,Clear,0,2014-01-10 11:53:00
2:53 AM,62.1,61.0,96,30.00,10.0,Calm,Calm,-,N/A,,Clear,0,2014-01-10 12:53:00
3:53 AM,64.0,61.0,90,30.00,10.0,Calm,Calm,-,N/A,,Clear,0,2014-01-10 13:53:00
4:53 AM,64.0,62.1,93,30.01,10.0,Calm,Calm,-,N/A,,Clear,0,2014-01-10 14:53:00
5:53 AM,63.0,61.0,93,30.02,10.0,Calm,Calm,-,N/A,,Clear,0,2014-01-10 15:53:00
6:25 AM,62.6,60.8,94,30.00,10.0,Calm,Calm,-,N/A,,Partly Cloudy,0,2014-01-10 16:25:00
6:53 AM,63.0,61.0,93,30.03,10.0,Calm,Calm,-,N/A,,Partly Cloudy,0,2014-01-10 16:53:00
7:53 AM,66.0,63.0,90,30.04,10.0,Calm,Calm,-,N/A,,Clear,0,2014-01-10 17:53:00
8:53 AM,73.0,64.9,76,30.04,10.0,Calm,Calm,-,N/A,,Clear,0,2014-01-10 18:53:00
9:53 AM,75.9,64.0,67,30.04,10.0,ENE,5.8,-,N/A,,Partly Cloudy,60,2014-01-10 19:53:00
10:53 AM,79.0,64.0,60,30.03,10.0,Variable,3.5,-,N/A,,Partly Cloudy,0,2014-01-10 20:53:00
11:53 AM,81.0,64.0,56,30.00,10.0,Variable,6.9,-,N/A,,Scattered Clouds,0,2014-01-10 21:53:00
12:53 PM,78.1,63.0,60,29.96,10.0,Variable,3.5,-,N/A,,Scattered Clouds,0,2014-01-10 22:53:00
1:29 PM,71.6,68.0,88,29.93,2.5,Variable,4.6,16.1,0.05,Rain,Light Rain,0,2014-01-10 23:29:00
1:37 PM,69.8,69.8,100,29.93,6.0,Calm,Calm,-,0.06,Rain,Light Rain,0,2014-01-10 23:37:00
1:53 PM,72.0,68.0,87,29.94,10.0,Variable,3.5,-,0.06,,Mostly Cloudy,0,2014-01-10 23:53:00
2:53 PM,73.9,66.9,79,29.92,10.0,North,6.9,-,N/A,,Mostly Cloudy,360,2014-01-11 00:53:00
3:53 PM,77.0,66.0,69,29.91,10.0,NNE,9.2,-,N/A,,Partly Cloudy,30,2014-01-11 01:53:00
4:53 PM,75.9,66.0,71,29.91,10.0,Variable,3.5,-,N/A,,Scattered Clouds,0,2014-01-11 02:53:00
5:53 PM,73.9,64.0,71,29.94,10.0,Variable,4.6,-,N/A,,Clear,0,2014-01-11 03:53:00
6:53 PM,70.0,64.0,81,29.94,10.0,Calm,Calm,-,N/A,,Partly Cloudy,0,2014-01-11 04:53:00
7:53 PM,69.1,64.9,87,29.96,10.0,Calm,Calm,-,N/A,,Clear,0,2014-01-11 05:53:00
8:53 PM,66.9,64.0,90,29.98,10.0,Calm,Calm,-,N/A,,Clear,0,2014-01-11 06:53:00
9:24 PM,66.2,64.4,94,29.95,10.0,Calm,Calm,-,N/A,,Partly Cloudy,0,2014-01-11 07:24:00
9:53 PM,66.9,64.0,90,29.98,10.0,Variable,3.5,-,N/A,,Clear,0,2014-01-11 07:53:00
10:53 PM,66.0,64.0,93,29.97,10.0,Calm,Calm,-,N/A,,Clear,0,2014-01-11 08:53:00
11:53 PM,66.0,63.0,90,29.97,10.0,Calm,Calm,-,N/A,,Clear,0,2014-01-11 09:53:00